timestamp,surface_pressure_avg,surface_temp_avg,battery_voltage,lat,long
2022-11-14 00:09:00+00:00,269.3164,8.9,12.57,47.84626,-54.09684
2022-11-14 00:19:01+00:00,286.3347,8.9,12.57,47.84626,-54.09684
2022-11-14 00:29:01+00:00,290.8414,8.9,12.57,47.84626,-54.09684
2022-11-14 00:39:01+00:00,282.4714,8.9,12.57,47.84626,-54.09684
2022-11-14 00:49:01+00:00,289.6297,8.9,12.57,47.84626,-54.09684
2022-11-14 00:59:01+00:00,303.908,8.9,12.57,47.84626,-54.09684
2022-11-14 01:09:01+00:00,304.0431,8.9,12.57,47.84626,-54.09684
2022-11-14 01:19:01+00:00,289.2814,8.9,12.57,47.84626,-54.09684
2022-11-14 01:29:01+00:00,293.988,8.9,12.57,47.84626,-54.09684
2022-11-14 01:39:01+00:00,305.5947,8.9,12.57,47.84626,-54.09684
2022-11-14 01:49:01+00:00,303.5096,8.9,12.57,47.84626,-54.09684
2022-11-14 01:59:01+00:00,300.1464,8.89,12.57,47.84626,-54.09684
2022-11-14 02:09:01+00:00,317.8098,8.89,12.57,47.84626,-54.09684
2022-11-14 02:19:00+00:00,329.9996,8.88,12.57,47.84626,-54.09684
2022-11-14 02:29:00+00:00,320.4979,8.89,12.57,47.84626,-54.09684
2022-11-14 02:39:00+00:00,314.163,8.89,12.57,47.84626,-54.09684
2022-11-14 02:49:00+00:00,319.563,8.89,12.57,47.84626,-54.09684
2022-11-14 02:59:00+00:00,325.7263,8.88,12.57,47.84626,-54.09684
2022-11-14 03:09:00+00:00,322.3113,8.85,12.57,47.84626,-54.09684
2022-11-14 03:19:00+00:00,311.7313,8.88,12.57,47.84626,-54.09684
2022-11-14 03:29:00+00:00,305.9947,8.9,12.57,47.84626,-54.09684
2022-11-14 03:39:00+00:00,319.6396,8.9,12.57,47.84626,-54.09684
2022-11-14 03:49:00+00:00,324.9646,8.9,12.57,47.84626,-54.09684
2022-11-14 03:59:00+00:00,308.098,8.89,12.57,47.84626,-54.09684
2022-11-14 04:09:00+00:00,299.2297,8.89,12.57,47.84626,-54.09684
2022-11-14 04:19:00+00:00,308.5914,8.88,12.57,47.84626,-54.09684
2022-11-14 04:29:00+00:00,304.0164,8.84,12.57,47.84626,-54.09684
2022-11-14 04:39:00+00:00,287.4547,8.84,12.57,47.84626,-54.09684
2022-11-14 04:49:00+00:00,293.728,8.86,12.57,47.84626,-54.09684
2022-11-14 04:59:00+00:00,299.8264,8.8,12.57,47.84626,-54.09684
2022-11-14 05:09:00+00:00,287.3281,8.8,12.57,47.84626,-54.09684
2022-11-14 05:19:00+00:00,279.1581,8.81,12.57,47.84626,-54.09684
2022-11-14 05:29:00+00:00,293.2964,8.8,12.57,47.84626,-54.09684
2022-11-14 05:39:00+00:00,294.0213,8.8,12.57,47.84626,-54.09684
2022-11-14 05:49:00+00:00,286.1147,8.79,12.57,47.84626,-54.09684
2022-11-14 05:59:00+00:00,290.1097,8.8,12.57,47.84626,-54.09684
2022-11-14 06:09:00+00:00,289.0897,8.8,12.57,47.84626,-54.09684
2022-11-14 06:19:00+00:00,268.6698,8.8,12.49,47.84626,-54.09684
2022-11-14 06:29:00+00:00,267.1464,8.8,12.49,47.84626,-54.09684
2022-11-14 06:39:00+00:00,276.1497,8.8,12.49,47.84626,-54.09684
2022-11-14 06:49:00+00:00,261.1431,8.72,12.49,47.84626,-54.09684
2022-11-14 06:59:00+00:00,237.3531,8.77,12.49,47.84626,-54.09684
2022-11-14 07:09:00+00:00,243.8014,8.76,12.49,47.84626,-54.09684
2022-11-14 07:19:00+00:00,251.6315,8.7,12.49,47.84626,-54.09684
2022-11-14 07:29:00+00:00,237.5331,8.7,12.49,47.84626,-54.09684
2022-11-14 07:39:00+00:00,235.5098,8.7,12.49,47.84626,-54.09684
2022-11-14 07:49:00+00:00,241.4864,8.7,12.49,47.84626,-54.09684
2022-11-14 07:59:00+00:00,225.7914,8.7,12.49,47.84626,-54.09684
2022-11-14 08:09:00+00:00,219.2781,8.7,12.49,47.84626,-54.09684
2022-11-14 08:19:00+00:00,232.1097,8.7,12.49,47.84626,-54.09684
2022-11-14 08:29:00+00:00,232.2064,8.7,12.49,47.84626,-54.09684
2022-11-14 08:39:00+00:00,220.8265,8.7,12.49,47.84626,-54.09684
2022-11-14 08:49:00+00:00,219.9131,8.7,12.49,47.84626,-54.09684
2022-11-14 08:59:00+00:00,232.5564,8.7,12.49,47.84626,-54.09684
2022-11-14 09:09:00+00:00,229.4564,8.7,12.49,47.84626,-54.09684
2022-11-14 09:19:00+00:00,223.0614,8.7,12.49,47.84626,-54.09684
2022-11-14 09:29:00+00:00,230.1981,8.7,12.49,47.84626,-54.09684
2022-11-14 09:39:00+00:00,247.8315,8.7,12.49,47.84626,-54.09684
2022-11-14 09:49:00+00:00,243.5997,8.7,12.49,47.84626,-54.09684
2022-11-14 09:59:00+00:00,245.4914,8.7,12.49,47.84626,-54.09684
2022-11-14 10:09:00+00:00,264.5914,8.7,12.49,47.84626,-54.09684
2022-11-14 10:19:00+00:00,271.9531,8.7,12.49,47.84626,-54.09684
2022-11-14 10:29:00+00:00,265.5297,8.7,12.49,47.84626,-54.09684
2022-11-14 10:39:00+00:00,276.6614,8.7,12.49,47.84626,-54.09684
2022-11-14 10:49:00+00:00,281.9147,8.7,12.49,47.84626,-54.09684
2022-11-14 10:59:00+00:00,278.6647,8.7,12.49,47.84626,-54.09684
2022-11-14 11:09:00+00:00,276.5381,8.7,12.49,47.84626,-54.09684
2022-11-14 11:19:01+00:00,282.7564,8.7,12.41,47.84626,-54.09684
2022-11-14 11:29:01+00:00,286.6348,8.7,12.41,47.84626,-54.09684
2022-11-14 11:39:01+00:00,284.4914,8.7,12.41,47.84626,-54.09684
2022-11-14 11:49:01+00:00,289.6381,8.7,12.41,47.84626,-54.09684
2022-11-14 11:59:01+00:00,293.0648,8.7,12.41,47.84626,-54.09684
2022-11-14 12:09:01+00:00,299.9063,8.7,12.41,47.84626,-54.09684
2022-11-14 12:19:00+00:00,309.0396,8.7,12.41,47.84626,-54.09684
2022-11-14 12:29:00+00:00,313.613,8.7,12.41,47.84626,-54.09684
2022-11-14 12:39:00+00:00,308.1463,8.7,12.41,47.84626,-54.09684
2022-11-14 12:49:00+00:00,312.5081,8.71,12.41,47.84626,-54.09684
2022-11-14 12:59:00+00:00,323.353,8.71,12.41,47.84626,-54.09684
2022-11-14 13:09:00+00:00,327.0663,8.7,12.41,47.84626,-54.09684
2022-11-14 13:19:01+00:00,334.9963,8.68,12.49,47.84626,-54.09684
2022-11-14 13:29:01+00:00,347.6946,8.67,12.49,47.84626,-54.09684
2022-11-14 13:39:01+00:00,356.5145,8.69,12.49,47.84626,-54.09684
2022-11-14 13:49:01+00:00,351.3297,8.76,12.49,47.84626,-54.09684
2022-11-14 13:59:01+00:00,357.1163,8.8,12.49,47.84626,-54.09684
2022-11-14 14:09:01+00:00,371.483,8.8,12.49,47.84626,-54.09684
2022-11-14 14:19:01+00:00,367.8896,8.8,12.41,47.84626,-54.09684
2022-11-14 14:29:01+00:00,359.1478,8.79,12.41,47.84626,-54.09684
2022-11-14 14:39:01+00:00,371.5179,8.77,12.41,47.84626,-54.09684
2022-11-14 14:49:01+00:00,377.6912,8.78,12.41,47.84626,-54.09684
2022-11-14 14:59:01+00:00,362.0095,8.76,12.41,47.84626,-54.09684
2022-11-14 15:09:01+00:00,363.4529,8.77,12.41,47.84626,-54.09684
2022-11-14 15:19:01+00:00,375.1746,8.77,12.49,47.84626,-54.09684
2022-11-14 15:29:01+00:00,370.2213,8.75,12.49,47.84626,-54.09684
2022-11-14 15:39:01+00:00,363.4746,8.76,12.49,47.84626,-54.09684
2022-11-14 15:49:01+00:00,364.1096,8.76,12.49,47.84626,-54.09684
2022-11-14 15:59:01+00:00,361.3912,8.77,12.49,47.84626,-54.09684
2022-11-14 16:09:01+00:00,358.1713,8.77,12.49,47.84626,-54.09684
2022-11-14 16:19:01+00:00,356.1396,8.79,12.49,47.84626,-54.09684
2022-11-14 16:29:01+00:00,357.2563,8.8,12.49,47.84626,-54.09684
2022-11-14 16:39:01+00:00,362.5746,8.79,12.49,47.84626,-54.09684
2022-11-14 16:49:01+00:00,365.1046,8.79,12.49,47.84626,-54.09684
2022-11-14 16:59:01+00:00,352.4747,8.77,12.49,47.84626,-54.09684
2022-11-14 17:09:01+00:00,354.6097,8.74,12.49,47.84626,-54.09684
2022-11-14 17:19:00+00:00,371.658,8.7,12.41,47.84626,-54.09684
2022-11-14 17:29:00+00:00,372.2446,8.7,12.41,47.84626,-54.09684
2022-11-14 17:39:00+00:00,340.2479,8.67,12.41,47.84626,-54.09684
2022-11-14 17:49:00+00:00,326.7413,8.7,12.41,47.84626,-54.09684
2022-11-14 17:59:00+00:00,342.74300000000005,8.7,12.41,47.84626,-54.09684
2022-11-14 18:09:00+00:00,332.6063,8.61,12.41,47.84626,-54.09684
2022-11-14 18:19:01+00:00,313.313,8.67,12.41,47.84626,-54.09684
2022-11-14 18:29:01+00:00,320.5563,8.67,12.41,47.84626,-54.09684
2022-11-14 18:39:01+00:00,322.71299999999997,8.65,12.41,47.84626,-54.09684
2022-11-14 18:49:01+00:00,301.608,8.6,12.41,47.84626,-54.09684
2022-11-14 18:59:01+00:00,286.4647,8.63,12.41,47.84626,-54.09684
2022-11-14 19:09:01+00:00,287.383,8.64,12.41,47.84626,-54.09684
2022-11-14 19:19:00+00:00,276.6647,8.61,12.49,47.84626,-54.09684
2022-11-14 19:29:00+00:00,255.7231,8.6,12.49,47.84626,-54.09684
2022-11-14 19:39:00+00:00,249.8814,8.6,12.49,47.84626,-54.09684
2022-11-14 19:49:00+00:00,253.2614,8.62,12.49,47.84626,-54.09684
2022-11-14 19:59:00+00:00,248.2048,8.66,12.49,47.84626,-54.09684
2022-11-14 20:09:00+00:00,236.8214,8.6,12.49,47.84626,-54.09684
2022-11-14 20:19:00+00:00,241.588,8.56,12.41,47.84626,-54.09684
2022-11-14 20:29:00+00:00,246.1081,8.59,12.41,47.84626,-54.09684
2022-11-14 20:39:00+00:00,237.7614,8.6,12.41,47.84626,-54.09684
2022-11-14 20:49:00+00:00,227.8114,8.6,12.41,47.84626,-54.09684
2022-11-14 20:59:00+00:00,233.9297,8.6,12.41,47.84626,-54.09684
2022-11-14 21:09:00+00:00,235.8498,8.6,12.41,47.84626,-54.09684
2022-11-14 21:19:00+00:00,233.5514,8.67,12.41,47.84626,-54.09684
2022-11-14 21:29:00+00:00,236.0114,8.7,12.41,47.84626,-54.09684
2022-11-14 21:39:00+00:00,239.2281,8.7,12.41,47.84626,-54.09684
2022-11-14 21:49:00+00:00,236.3498,8.7,12.41,47.84626,-54.09684
2022-11-14 21:59:00+00:00,236.3781,8.7,12.41,47.84626,-54.09684
2022-11-14 22:09:00+00:00,241.5948,8.7,12.41,47.84626,-54.09684
2022-11-14 22:19:01+00:00,247.0214,8.7,12.41,47.84626,-54.09684
2022-11-14 22:29:01+00:00,248.4764,8.7,12.41,47.84626,-54.09684
2022-11-14 22:39:01+00:00,245.1564,8.68,12.41,47.84626,-54.09684
2022-11-14 22:49:01+00:00,243.9431,8.68,12.41,47.84626,-54.09684
2022-11-14 22:59:01+00:00,244.4347,8.69,12.41,47.84626,-54.09684
2022-11-14 23:09:01+00:00,244.3765,8.7,12.41,47.84626,-54.09684
2022-11-14 23:19:01+00:00,245.7431,8.7,12.41,47.84626,-54.09684
2022-11-14 23:29:01+00:00,246.2331,8.69,12.41,47.84626,-54.09684
2022-11-14 23:39:01+00:00,245.8431,8.69,12.41,47.84626,-54.09684
2022-11-14 23:49:01+00:00,245.3047,8.7,12.41,47.84626,-54.09684
2022-11-14 23:59:01+00:00,250.7064,8.7,12.41,47.84626,-54.09684
